Location: Recife
(8.0585°S, 34.8848°W)
Time: 11:31:42
(UTC-03:00)

Courier 1B - Pass Details

Date: 20 April 2026
Orbit: 962 x 1209 km, 28.3° (Epoch: 7 May)

Event Time Altitude Azimuth Distance (km) Brightness Sun altitude
Rises 10:25:45 0° 229° (SW) 4,114 10.5 66.3°
Reaches altitude 10° 10:29:16 10° 216° (SW) 3,141 10.0 66.8°
Maximum altitude 10:35:29 25° 163° (SSE) 2,170 9.5 67.6°
Drops below altitude 10° 10:41:32 10° 110° (ESE) 3,045 10.3 68.3°
Sets 10:44:51 0° 97° (E) 3,965 10.8 68.6°
